Regional Weather Roundup
Issued by NWS Albany, NY

Home | Current Version | Previous Version | Graphics & Text | Print | Product List | Glossary On
Versions: 1 2 3 4 5 6 7 8 9 10 11 12 13 14 15 16 17 18 19 20 21 22 23 24 25 26 27 28 29 30 31 32 33 34 35 36 37 38 39 40 41 42 43 44 45 46 47 48 49 50
000
ASUS41 KALY 300010
RWRALY

NEW YORK STATE HOURLY WEATHER ROUNDUP
NATIONAL WEATHER SERVICE ALBANY NY
800 PM EDT FRI MAY 29 2015

NOTE: "FAIR" INDICATES FEW OR NO CLOUDS BELOW 12,000 FEET WITH NO
SIGNIFICANT WEATHER AND/OR NO OBSTRUCTIONS TO VISIBILITY.

NYZ032-033-038>043-046>054-057>066-NYZ062>081-300100-
EAST


CITY           SKY/WX    TMP DP  RH WIND       PRES   REMARKS
ALBANY         CLOUDY    79  55  43 S9        30.17F
GLENS FALLS    MOCLDY    74  58  57 CALM      30.16F
POUGHKEEPSIE   MOCLDY    78  60  53 S3        30.19S
NEWBURGH       MOCLDY    75  61  60 VRB6      30.22
MONTGOMERY     MOCLDY    76  60  57 SE5       30.20R
WHITE PLAINS   MOCLDY    70  58  65 S7        30.23S
ISLIP          MOCLDY    64  59  83 SE5       30.23F
NEW YORK CITY  MOCLDY    72  56  57 SE13      30.22F
CENTRAL PARK   MOCLDY    71  56  58 VRB6      30.26R
$$

NYZ005>009-017-018-044>046-055-056-300100-
CENTRAL


CITY           SKY/WX    TMP DP  RH WIND       PRES   REMARKS
FULTON         PTCLDY    76  55  48 VRB3      30.10F
SYRACUSE       MOCLDY    77  59  53 E7        30.11S
ROME           MOCLDY    76  55  48 E7        30.14F
ELMIRA         MOCLDY    79  60  52 S6        30.13S
BINGHAMTON     MOCLDY    74  56  53 S3        30.20R
MONTICELLO     PTCLDY    72  55  56 SE6       30.24S
$$

NYZ026>034-041>043-300100-
NORTH


CITY           SKY/WX    TMP DP  RH WIND       PRES   REMARKS
WATERTOWN      PTCLDY    76  53  44 SE3       30.10F
FORT DRUM      NOT AVBL
MASSENA        PTCLDY    75  58  55 CALM      30.11F
SARANAC LAKE   MOCLDY    73  50  44 SW8       30.16F
PLATTSBURGH    MOCLDY    68  57  68 CALM      30.11F
$$

NYZ001>004-010>016-019>021-300100-
WEST


CITY           SKY/WX    TMP DP  RH WIND       PRES   REMARKS
NIAGARA FALLS  MOCLDY    81  60  48 S7        30.04F
BUFFALO        MOCLDY    82  60  47 SW6       30.06S
DUNKIRK        MOCLDY    79  65  62 CALM      30.06S
JAMESTOWN      CLOUDY    72  63  73 SW5       30.14S
WELLSVILLE     MOCLDY    76  58  53 S10       30.19R
ROCHESTER      MOCLDY    82  58  43 SE6       30.07F
PENN YAN       MOCLDY    78  59  51 S7        30.12S
$$

             KEY
       WCI = WIND CHILL INDEX
       VSB = VISIBILITY
       HX  = HEAT INDEX
$$



USA.gov is the U.S. government's official web portal to all federal, state and local government web resources and services.